Time,TemperatureF,DewpointF,PressureIn,WindDirection,WindDirectionDegrees,WindSpeedMPH,WindSpeedGustMPH,Humidity,HourlyPrecipIn,Conditions,Clouds,dailyrainin,SoftwareType,DateUTC
2013-02-10 00:01:00,36.0,34.0,-100.00,NNW,334,0.0,1.0,91,-99.99,,,-99.99,,2013-02-10 08:01:00,
2013-02-10 00:11:00,36.0,34.0,-100.00,ENE,57,0.0,2.0,91,-99.99,,,-99.99,,2013-02-10 08:11:00,
2013-02-10 00:21:00,36.0,34.0,-100.00,East,82,1.0,2.0,91,-99.99,,,-99.99,,2013-02-10 08:21:00,
2013-02-10 00:31:00,36.0,34.0,-100.00,ENE,60,1.0,3.0,91,-99.99,,,-99.99,,2013-02-10 08:31:00,
2013-02-10 00:43:00,36.0,34.0,-100.00,NE,53,2.0,2.0,92,-99.99,,,-99.99,,2013-02-10 08:43:00,
2013-02-10 00:52:00,36.0,34.0,-100.00,NE,36,1.0,3.0,91,-99.99,,,-99.99,,2013-02-10 08:52:00,
2013-02-10 01:01:00,36.0,34.0,-100.00,NNE,21,2.0,3.0,91,-99.99,,,-99.99,,2013-02-10 09:01:00,
2013-02-10 01:11:00,36.0,34.0,-100.00,North,351,2.0,3.0,92,-99.99,,,-99.99,,2013-02-10 09:11:00,
2013-02-10 01:21:00,36.0,33.0,-100.00,NNW,347,2.0,3.0,90,-99.99,,,-99.99,,2013-02-10 09:21:00,
2013-02-10 01:31:00,36.0,33.0,-100.00,NW,312,2.0,2.0,88,-99.99,,,-99.99,,2013-02-10 09:31:00,
2013-02-10 01:41:00,36.0,33.0,-100.00,NW,307,2.0,2.0,87,-99.99,,,-99.99,,2013-02-10 09:41:00,
2013-02-10 01:51:00,36.0,33.0,-100.00,WNW,294,1.0,4.0,87,-99.99,,,-99.99,,2013-02-10 09:51:00,
2013-02-10 02:01:00,36.0,33.0,-100.00,WNW,287,2.0,4.0,88,-99.99,,,-99.99,,2013-02-10 10:01:00,
2013-02-10 02:11:00,36.0,33.0,-100.00,WNW,296,2.0,3.0,89,-99.99,,,-99.99,,2013-02-10 10:11:00,
2013-02-10 02:21:00,36.0,33.0,-100.00,WNW,284,1.0,2.0,90,-99.99,,,-99.99,,2013-02-10 10:21:00,
2013-02-10 02:31:00,36.0,33.0,-100.00,NNW,343,1.0,2.0,90,-99.99,,,-99.99,,2013-02-10 10:31:00,
2013-02-10 02:41:00,35.0,32.0,-100.00,NNW,347,1.0,3.0,90,-99.99,,,-99.99,,2013-02-10 10:41:00,
2013-02-10 02:51:00,35.0,32.0,-100.00,NNW,340,2.0,4.0,90,-99.99,,,-99.99,,2013-02-10 10:51:00,
2013-02-10 03:01:00,35.0,33.0,-100.00,NNW,332,2.0,2.0,91,-99.99,,,-99.99,,2013-02-10 11:01:00,
2013-02-10 03:11:00,35.0,33.0,-100.00,NNW,330,1.0,1.0,91,-99.99,,,-99.99,,2013-02-10 11:11:00,
2013-02-10 03:21:00,35.0,33.0,-100.00,NW,326,1.0,1.0,91,-99.99,,,-99.99,,2013-02-10 11:21:00,
2013-02-10 03:31:00,36.0,34.0,-100.00,NW,321,1.0,1.0,91,-99.99,,,-99.99,,2013-02-10 11:31:00,
2013-02-10 03:42:00,36.0,34.0,-100.00,NNW,331,1.0,2.0,91,-99.99,,,-99.99,,2013-02-10 11:42:00,
2013-02-10 03:52:00,36.0,34.0,-100.00,North,359,1.0,1.0,92,-99.99,,,-99.99,,2013-02-10 11:52:00,
2013-02-10 04:01:00,36.0,34.0,-100.00,NNE,33,1.0,2.0,92,-99.99,,,-99.99,,2013-02-10 12:01:00,
2013-02-10 04:12:00,35.0,33.0,-100.00,North,2,1.0,2.0,91,-99.99,,,-99.99,,2013-02-10 12:12:00,
2013-02-10 04:21:00,35.0,32.0,-100.00,North,349,2.0,3.0,90,-99.99,,,-99.99,,2013-02-10 12:21:00,
2013-02-10 04:32:00,35.0,33.0,-100.00,NNW,337,2.0,2.0,91,-99.99,,,-99.99,,2013-02-10 12:32:00,
2013-02-10 04:41:00,35.0,32.0,-100.00,NW,314,1.0,1.0,90,-99.99,,,-99.99,,2013-02-10 12:41:00,
2013-02-10 04:52:00,36.0,33.0,-100.00,NNW,328,1.0,3.0,88,-99.99,,,-99.99,,2013-02-10 12:52:00,
2013-02-10 05:02:00,35.0,32.0,-100.00,NW,322,1.0,2.0,89,-99.99,,,-99.99,,2013-02-10 13:02:00,
2013-02-10 05:11:00,35.0,32.0,-100.00,NNW,330,1.0,2.0,89,-99.99,,,-99.99,,2013-02-10 13:11:00,
2013-02-10 05:21:00,35.0,32.0,-100.00,NNW,333,1.0,2.0,89,-99.99,,,-99.99,,2013-02-10 13:21:00,
2013-02-10 05:31:00,35.0,32.0,-100.00,NNW,341,1.0,2.0,90,-99.99,,,-99.99,,2013-02-10 13:31:00,
2013-02-10 05:41:00,35.0,32.0,-100.00,NNW,341,1.0,2.0,90,-99.99,,,-99.99,,2013-02-10 13:41:00,
2013-02-10 05:51:00,35.0,33.0,-100.00,North,355,2.0,3.0,91,-99.99,,,-99.99,,2013-02-10 13:51:00,
2013-02-10 06:01:00,35.0,33.0,-100.00,NNW,332,2.0,3.0,92,-99.99,,,-99.99,,2013-02-10 14:01:00,
2013-02-10 06:11:00,35.0,33.0,-100.00,NW,326,1.0,3.0,92,-99.99,,,-99.99,,2013-02-10 14:11:00,
2013-02-10 06:21:00,35.0,33.0,-100.00,NNW,335,2.0,2.0,92,-99.99,,,-99.99,,2013-02-10 14:21:00,
2013-02-10 06:31:00,35.0,33.0,-100.00,NNW,335,2.0,2.0,92,-99.99,,,-99.99,,2013-02-10 14:31:00,
2013-02-10 06:41:00,35.0,33.0,-100.00,NNW,335,2.0,2.0,92,-99.99,,,-99.99,,2013-02-10 14:41:00,
2013-02-10 06:52:00,35.0,33.0,-100.00,NW,307,1.0,4.0,92,-99.99,,,-99.99,,2013-02-10 14:52:00,
2013-02-10 07:01:00,35.0,33.0,-100.00,NW,324,3.0,3.0,91,-99.99,,,-99.99,,2013-02-10 15:01:00,
2013-02-10 07:11:00,35.0,33.0,-100.00,NW,324,3.0,3.0,91,-99.99,,,-99.99,,2013-02-10 15:11:00,
2013-02-10 07:21:00,35.0,33.0,-100.00,North,352,2.0,3.0,92,-99.99,,,-99.99,,2013-02-10 15:21:00,
2013-02-10 07:31:00,35.0,33.0,-100.00,North,357,2.0,3.0,93,-99.99,,,-99.99,,2013-02-10 15:31:00,
2013-02-10 07:41:00,35.0,33.0,-100.00,North,358,2.0,2.0,94,-99.99,,,-99.99,,2013-02-10 15:41:00,
2013-02-10 07:51:00,35.0,33.0,-100.00,North,358,2.0,3.0,94,-99.99,,,-99.99,,2013-02-10 15:51:00,
2013-02-10 08:01:00,36.0,34.0,-100.00,NNW,343,1.0,2.0,92,-99.99,,,-99.99,,2013-02-10 16:01:00,
2013-02-10 08:11:00,36.0,33.0,-100.00,NNW,341,1.0,1.0,88,-99.99,,,-99.99,,2013-02-10 16:11:00,
2013-02-10 08:21:00,37.0,33.0,-100.00,NNW,333,1.0,2.0,86,-99.99,,,-99.99,,2013-02-10 16:21:00,
2013-02-10 08:31:00,37.0,33.0,-100.00,WNW,292,1.0,2.0,85,-99.99,,,-99.99,,2013-02-10 16:31:00,
2013-02-10 08:42:00,38.0,33.0,-100.00,WNW,292,1.0,3.0,83,-99.99,,,-99.99,,2013-02-10 16:42:00,
2013-02-10 08:51:00,38.0,33.0,-100.00,NW,324,1.0,4.0,83,-99.99,,,-99.99,,2013-02-10 16:51:00,
2013-02-10 09:01:00,38.0,32.0,-100.00,WNW,303,2.0,5.0,79,-99.99,,,-99.99,,2013-02-10 17:01:00,
2013-02-10 09:11:00,38.0,32.0,-100.00,WNW,300,2.0,5.0,78,-99.99,,,-99.99,,2013-02-10 17:11:00,
2013-02-10 09:21:00,38.0,31.0,-100.00,WNW,301,2.0,5.0,75,-99.99,,,-99.99,,2013-02-10 17:21:00,
2013-02-10 09:31:00,38.0,30.0,-100.00,WNW,292,3.0,7.0,74,-99.99,,,-99.99,,2013-02-10 17:31:00,
2013-02-10 09:42:00,39.0,30.0,-100.00,West,280,3.0,8.0,71,-99.99,,,-99.99,,2013-02-10 17:42:00,
2013-02-10 09:52:00,41.0,31.0,-100.00,WSW,256,3.0,7.0,68,-99.99,,,-99.99,,2013-02-10 17:52:00,
2013-02-10 10:01:00,41.0,31.0,-100.00,WNW,282,3.0,8.0,68,-99.99,,,-99.99,,2013-02-10 18:01:00,
2013-02-10 10:11:00,41.0,31.0,-100.00,WNW,283,3.0,8.0,67,-99.99,,,-99.99,,2013-02-10 18:11:00,
2013-02-10 10:21:00,41.0,30.0,-100.00,SW,222,3.0,9.0,65,-99.99,,,-99.99,,2013-02-10 18:21:00,
2013-02-10 10:31:00,41.0,31.0,-100.00,SW,218,4.0,9.0,67,-99.99,,,-99.99,,2013-02-10 18:31:00,
2013-02-10 10:41:00,41.0,30.0,-100.00,WSW,257,4.0,7.0,65,-99.99,,,-99.99,,2013-02-10 18:41:00,
2013-02-10 10:52:00,40.0,30.0,-100.00,NW,307,3.0,10.0,68,-99.99,,,-99.99,,2013-02-10 18:52:00,
2013-02-10 11:01:00,40.0,31.0,-100.00,NW,312,4.0,9.0,69,-99.99,,,-99.99,,2013-02-10 19:01:00,
2013-02-10 11:11:00,40.0,30.0,-100.00,NW,309,4.0,9.0,68,-99.99,,,-99.99,,2013-02-10 19:11:00,
2013-02-10 11:21:00,40.0,32.0,-100.00,WNW,288,4.0,8.0,72,-99.99,,,-99.99,,2013-02-10 19:21:00,
2013-02-10 11:31:00,40.0,32.0,-100.00,West,268,3.0,7.0,73,-99.99,,,-99.99,,2013-02-10 19:31:00,
2013-02-10 11:42:00,40.0,32.0,-100.00,WNW,302,3.0,10.0,74,-99.99,,,-99.99,,2013-02-10 19:42:00,
2013-02-10 11:51:00,40.0,32.0,-100.00,WNW,293,5.0,8.0,74,-99.99,,,-99.99,,2013-02-10 19:51:00,
2013-02-10 12:01:00,40.0,33.0,-100.00,WNW,297,4.0,9.0,77,-99.99,,,-99.99,,2013-02-10 20:01:00,
2013-02-10 12:11:00,40.0,34.0,-100.00,NW,306,4.0,8.0,80,-99.99,,,-99.99,,2013-02-10 20:11:00,
2013-02-10 12:21:00,40.0,35.0,-100.00,WNW,285,4.0,11.0,83,-99.99,,,-99.99,,2013-02-10 20:21:00,
2013-02-10 12:31:00,40.0,35.0,-100.00,NW,305,4.0,8.0,82,-99.99,,,-99.99,,2013-02-10 20:31:00,
2013-02-10 12:42:00,42.0,35.0,-100.00,WNW,294,4.0,9.0,76,-99.99,,,-99.99,,2013-02-10 20:42:00,
2013-02-10 12:52:00,41.0,34.0,-100.00,WNW,301,4.0,9.0,76,-99.99,,,-99.99,,2013-02-10 20:52:00,
2013-02-10 13:02:00,40.0,34.0,-100.00,WNW,292,5.0,9.0,79,-99.99,,,-99.99,,2013-02-10 21:02:00,
2013-02-10 13:11:00,41.0,34.0,-100.00,WNW,284,3.0,9.0,76,-99.99,,,-99.99,,2013-02-10 21:11:00,
2013-02-10 13:21:00,41.0,34.0,-100.00,West,277,5.0,8.0,76,-99.99,,,-99.99,,2013-02-10 21:21:00,
2013-02-10 13:32:00,41.0,34.0,-100.00,WNW,282,3.0,10.0,76,-99.99,,,-99.99,,2013-02-10 21:32:00,
2013-02-10 13:42:00,41.0,34.0,-100.00,WNW,297,4.0,9.0,76,-99.99,,,-99.99,,2013-02-10 21:42:00,
2013-02-10 13:51:00,41.0,33.0,-100.00,West,279,4.0,7.0,74,-99.99,,,-99.99,,2013-02-10 21:51:00,
2013-02-10 14:01:00,42.0,33.0,-100.00,West,273,3.0,8.0,71,-99.99,,,-99.99,,2013-02-10 22:01:00,
2013-02-10 14:11:00,42.0,33.0,-100.00,WNW,302,3.0,9.0,69,-99.99,,,-99.99,,2013-02-10 22:11:00,
2013-02-10 14:21:00,42.0,32.0,-100.00,WNW,302,3.0,9.0,68,-99.99,,,-99.99,,2013-02-10 22:21:00,
2013-02-10 14:31:00,42.0,32.0,-100.00,West,270,5.0,9.0,68,-99.99,,,-99.99,,2013-02-10 22:31:00,
2013-02-10 14:42:00,41.0,32.0,-100.00,WSW,248,4.0,7.0,70,-99.99,,,-99.99,,2013-02-10 22:42:00,
2013-02-10 14:52:00,41.0,32.0,-100.00,WSW,251,3.0,8.0,70,-99.99,,,-99.99,,2013-02-10 22:52:00,
2013-02-10 15:01:00,41.0,32.0,-100.00,WNW,285,4.0,9.0,70,-99.99,,,-99.99,,2013-02-10 23:01:00,
2013-02-10 15:11:00,41.0,32.0,-100.00,West,281,4.0,8.0,71,-99.99,,,-99.99,,2013-02-10 23:11:00,
2013-02-10 15:21:00,42.0,33.0,-100.00,WSW,254,3.0,9.0,71,-99.99,,,-99.99,,2013-02-10 23:21:00,
2013-02-10 15:31:00,42.0,33.0,-100.00,WNW,299,4.0,9.0,71,-99.99,,,-99.99,,2013-02-10 23:31:00,
2013-02-10 15:41:00,41.0,33.0,-100.00,WNW,295,4.0,8.0,73,-99.99,,,-99.99,,2013-02-10 23:41:00,
2013-02-10 15:52:00,41.0,33.0,-100.00,WNW,303,3.0,9.0,73,-99.99,,,-99.99,,2013-02-10 23:52:00,
2013-02-10 16:01:00,40.0,32.0,-100.00,NW,307,4.0,10.0,74,-99.99,,,-99.99,,2013-02-11 00:01:00,
2013-02-10 16:11:00,40.0,32.0,-100.00,NW,307,4.0,10.0,74,-99.99,,,-99.99,,2013-02-11 00:11:00,
2013-02-10 16:21:00,40.0,32.0,-100.00,NW,306,5.0,10.0,73,-99.99,,,-99.99,,2013-02-11 00:21:00,
2013-02-10 16:31:00,40.0,32.0,-100.00,NW,304,5.0,9.0,73,-99.99,,,-99.99,,2013-02-11 00:31:00,
2013-02-10 16:41:00,40.0,32.0,-100.00,WNW,293,5.0,8.0,73,-99.99,,,-99.99,,2013-02-11 00:41:00,
2013-02-10 16:51:00,40.0,33.0,-100.00,WNW,289,4.0,9.0,75,-99.99,,,-99.99,,2013-02-11 00:51:00,
2013-02-10 17:01:00,39.0,32.0,-100.00,West,275,4.0,9.0,77,-99.99,,,-99.99,,2013-02-11 01:01:00,
2013-02-10 17:11:00,39.0,34.0,-100.00,West,273,4.0,4.0,82,-99.99,,,-99.99,,2013-02-11 01:11:00,
2013-02-10 17:21:00,39.0,35.0,-100.00,WNW,284,1.0,7.0,84,-99.99,,,-99.99,,2013-02-11 01:21:00,
2013-02-10 17:31:00,39.0,35.0,-100.00,NW,308,2.0,6.0,84,-99.99,,,-99.99,,2013-02-11 01:31:00,
2013-02-10 17:41:00,39.0,35.0,-100.00,NW,308,2.0,6.0,84,-99.99,,,-99.99,,2013-02-11 01:41:00,
2013-02-10 17:52:00,38.0,34.0,-100.00,WNW,302,2.0,7.0,86,-99.99,,,-99.99,,2013-02-11 01:52:00,
2013-02-10 18:01:00,38.0,35.0,-100.00,NW,309,3.0,8.0,88,-99.99,,,-99.99,,2013-02-11 02:01:00,
2013-02-10 18:11:00,38.0,35.0,-100.00,WNW,285,3.0,5.0,90,-99.99,,,-99.99,,2013-02-11 02:11:00,
2013-02-10 18:21:00,38.0,35.0,-100.00,West,281,2.0,6.0,90,-99.99,,,-99.99,,2013-02-11 02:21:00,
2013-02-10 18:31:00,37.0,35.0,-100.00,West,274,3.0,7.0,93,-99.99,,,-99.99,,2013-02-11 02:31:00,
2013-02-10 18:41:00,37.0,35.0,-100.00,SW,235,2.0,6.0,94,-99.99,,,-99.99,,2013-02-11 02:41:00,
2013-02-10 18:52:00,36.0,34.0,-100.00,SSW,209,2.0,8.0,94,-99.99,,,-99.99,,2013-02-11 02:52:00,
2013-02-10 19:01:00,36.0,34.0,-100.00,SSW,209,2.0,8.0,94,-99.99,,,-99.99,,2013-02-11 03:01:00,
2013-02-10 19:11:00,36.0,34.0,-100.00,SSW,209,2.0,8.0,94,-99.99,,,-99.99,,2013-02-11 03:11:00,
2013-02-10 19:21:00,36.0,35.0,-100.00,SSW,206,4.0,6.0,95,-99.99,,,-99.99,,2013-02-11 03:21:00,
2013-02-10 19:31:00,36.0,35.0,-100.00,SW,221,3.0,6.0,95,-99.99,,,-99.99,,2013-02-11 03:31:00,
2013-02-10 19:41:00,36.0,35.0,-100.00,SW,221,4.0,6.0,95,-99.99,,,-99.99,,2013-02-11 03:41:00,
2013-02-10 19:52:00,36.0,35.0,-100.00,West,263,1.0,7.0,95,-99.99,,,-99.99,,2013-02-11 03:52:00,
2013-02-10 20:01:00,36.0,35.0,-100.00,West,263,1.0,7.0,95,-99.99,,,-99.99,,2013-02-11 04:01:00,
2013-02-10 20:11:00,36.0,35.0,-100.00,WSW,246,1.0,5.0,95,-99.99,,,-99.99,,2013-02-11 04:11:00,
2013-02-10 20:21:00,36.0,35.0,-100.00,WSW,255,2.0,4.0,95,-99.99,,,-99.99,,2013-02-11 04:21:00,
2013-02-10 20:31:00,37.0,36.0,-100.00,West,281,1.0,2.0,96,-99.99,,,-99.99,,2013-02-11 04:31:00,
2013-02-10 20:41:00,37.0,36.0,-100.00,WSW,243,1.0,2.0,97,-99.99,,,-99.99,,2013-02-11 04:41:00,
2013-02-10 20:51:00,37.0,36.0,-100.00,West,266,0.0,2.0,97,-99.99,,,-99.99,,2013-02-11 04:51:00,
2013-02-10 21:01:00,37.0,36.0,-100.00,West,266,0.0,2.0,97,-99.99,,,-99.99,,2013-02-11 05:01:00,
2013-02-10 21:11:00,37.0,36.0,-100.00,West,278,1.0,5.0,97,-99.99,,,-99.99,,2013-02-11 05:11:00,
2013-02-10 21:22:00,37.0,36.0,-100.00,NW,310,1.0,4.0,98,-99.99,,,-99.99,,2013-02-11 05:22:00,
2013-02-10 21:31:00,36.0,35.0,-100.00,WNW,299,2.0,2.0,98,-99.99,,,-99.99,,2013-02-11 05:31:00,
2013-02-10 21:41:00,36.0,35.0,-100.00,WNW,295,1.0,4.0,98,-99.99,,,-99.99,,2013-02-11 05:41:00,
2013-02-10 21:52:00,36.0,35.0,-100.00,NW,308,1.0,7.0,98,-99.99,,,-99.99,,2013-02-11 05:52:00,
2013-02-10 22:01:00,36.0,35.0,-100.00,WNW,291,3.0,6.0,98,-99.99,,,-99.99,,2013-02-11 06:01:00,
2013-02-10 22:11:00,36.0,35.0,-100.00,WNW,301,2.0,7.0,98,-99.99,,,-99.99,,2013-02-11 06:11:00,
2013-02-10 22:21:00,36.0,35.0,-100.00,WNW,289,3.0,4.0,98,-99.99,,,-99.99,,2013-02-11 06:21:00,
2013-02-10 22:31:00,36.0,35.0,-100.00,WNW,289,3.0,4.0,98,-99.99,,,-99.99,,2013-02-11 06:31:00,
2013-02-10 22:42:00,36.0,35.0,-100.00,NW,315,1.0,3.0,98,-99.99,,,-99.99,,2013-02-11 06:42:00,
2013-02-10 22:51:00,36.0,35.0,-100.00,WNW,287,2.0,4.0,98,-99.99,,,-99.99,,2013-02-11 06:51:00,
2013-02-10 23:01:00,36.0,35.0,-100.00,NW,307,2.0,4.0,98,-99.99,,,-99.99,,2013-02-11 07:01:00,
2013-02-10 23:11:00,36.0,35.0,-100.00,NNW,330,2.0,2.0,98,-99.99,,,-99.99,,2013-02-11 07:11:00,
2013-02-10 23:21:00,36.0,35.0,-100.00,NNW,345,1.0,3.0,98,-99.99,,,-99.99,,2013-02-11 07:21:00,
2013-02-10 23:31:00,35.0,34.0,-100.00,NNW,341,2.0,2.0,98,-99.99,,,-99.99,,2013-02-11 07:31:00,
2013-02-10 23:41:00,35.0,34.0,-100.00,North,9,1.0,3.0,98,-99.99,,,-99.99,,2013-02-11 07:41:00,
2013-02-10 23:51:00,36.0,35.0,-100.00,NNE,20,2.0,3.0,98,-99.99,,,-99.99,,2013-02-11 07:51:00,